Location: East Irvine
(33.6759°N, 117.7598°W)
Time: 00:44:46
(UTC+00:00)

AQUARIUS - Pass Details

Date: 15 November 2025
Orbit: 634 x 636 km, 98.0° (Epoch: 07 December)

Event Time Altitude Azimuth Distance (km) Brightness Sun altitude
Rises 01:53:57 0° 172° (S) 2,918 7.6 -13.8°
Reaches altitude 10° 01:56:09 10° 174° (S) 2,013 6.8 -14.3°
Maximum altitude 02:00:31 70° 258° (WSW) 676 4.4 -15.2°
Drops below altitude 10° 02:04:55 10° 343° (NNW) 2,025 6.8 -16.1°
Sets 02:07:08 0° 346° (NNW) 2,937 7.6 -16.5°
